Location: Asheville, NC
(35.6000°N, 82.5500°W)
Time: 06:47:37
(UTC-05:00)

KKS-1 - Pass Details

Date: 05 January 2018
Orbit: 637 x 651 km, 98.3° (Epoch: 17 January)

Event Time Altitude Azimuth Distance (km) Brightness Sun altitude
Rises 04:44:41 0° 152° (SSE) 2,933 ? -35.0°
Reaches altitude 10° 04:46:56 10° 147° (SSE) 2,026 ? -34.5°
Enters shadow 04:47:42 15° 144° (SE) 1,735 ? -34.3°
